Location: Guferjoch
(46.7462°N, 8.4506°E)
Time: 23:54:57
(UTC+00:00)

Cosmos 1437 Rocket - Pass Details

Date: 14 July 2020
Orbit: 506 x 562 km, 81.2° (Epoch: 03 August)

Event Time Altitude Azimuth Distance (km) Brightness Sun altitude
Rises 02:06:27 0° 335° (NNW) 2,736 6.8 -13.3°
Reaches altitude 10° 02:09:03 10° 319° (NW) 1,826 5.6 -13.0°
Maximum altitude 02:12:02 20° 271° (W) 1,279 4.3 -12.7°
Enters shadow 02:13:24 17° 244° (WSW) 1,401 4.3 -12.6°
